Location: Asar Burnu
(36.5203°N, 30.5523°E)
Time: 17:03:09
(UTC+00:00)

Okean O Rocket - Pass Details

Date: 04 August 2024
Orbit: 617 x 638 km, 98.1° (Epoch: 18 September)

Event Time Altitude Azimuth Distance (km) Brightness Sun altitude
Exits shadow 18:31:05 12° 184° (S) 1,847 3.7 -16.7°
Maximum altitude 18:34:57 52° 260° (W) 780 2.3 -17.3°
Drops below altitude 10° 18:39:12 10° 337° (NNW) 2,005 5.1 -18.0°
Sets 18:41:27 0° 342° (NNW) 2,920 6.0 -18.3°
